Simultaneous Nadir Overpasses (SNOs) Predictions

Prediction of SNOs between NOAA-19 and NPP Satellite Orbit:

Table of predicted SNOs for the next 14.0 days since TLE Epoch: 5/4/2024
Index Date (NOAA-19) Time (NOAA-19) Lat,Lon (NOAA-19) SZA (NOAA-19 ) Date (NPP) Time (NPP) Lat,Lon (NPP) SZA (NPP ) Distance(km) Time Diff (sec)
1 05/06/2024 02:00:09 -73.13, -40.54 123.34 05/06/2024 02:01:20 -73.14, -39.30 123.40 40.23 71
2 05/06/2024 02:50:58 73.36, 127.27 56.86 05/06/2024 02:52:11 73.40, 127.43 56.88 7.43 73
3 05/06/2024 03:42:01 -73.43, -65.33 123.10 05/06/2024 03:42:56 -73.45, -65.36 123.08 2.97 55
4 05/06/2024 04:32:54 73.46, 102.03 56.93 05/06/2024 04:33:42 73.46, 101.93 56.92 3.16 48
5 05/06/2024 05:23:58 -73.48, -90.69 123.07 05/06/2024 05:24:26 -73.46, -90.75 123.10 3.00 28
6 05/06/2024 06:14:52 73.47, 76.55 56.91 05/06/2024 06:15:12 73.47, 76.54 56.91 0.56 20
7 05/06/2024 07:05:56 -73.49,-116.17 123.09 05/06/2024 07:05:56 -73.47,-116.14 123.11 2.52 0
8 05/06/2024 07:56:50 73.47, 51.07 56.90 05/06/2024 07:56:42 73.48, 51.15 56.90 2.35 8
9 05/06/2024 08:47:54 -73.49,-141.64 123.10 05/06/2024 08:47:27 -73.52,-141.64 123.07 3.30 27
10 05/06/2024 09:38:47 73.53, 25.72 56.92 05/06/2024 09:38:13 73.53, 25.64 56.94 2.49 34
11 05/06/2024 10:29:51 -73.55,-167.00 123.07 05/06/2024 10:28:57 -73.53,-167.03 123.08 2.25 54
12 05/06/2024 11:20:45 73.53, 0.24 56.91 05/06/2024 11:19:43 73.54, 0.25 56.93 1.07 62
13 05/06/2024 12:11:44 -73.80, 168.12 122.87 05/06/2024 12:10:32 -73.78, 167.00 122.82 34.97 72
14 05/06/2024 13:02:32 74.07, -23.89 57.37 05/06/2024 13:01:24 74.09, -26.45 57.52 77.97 68



Historial Predications of SNOs between NOAA-19 and NPP
